Jacksonville, FL

3:20 PM EDT on September 30, 2016 (GMT -0400)
Craig Municipal

Weather History for KCRG - February, 2013

Change the Weather History Date:

Tuesday, February 5, 2013

  Actual Average Record
Temperature  
Mean Temperature 56 °F -  
Max Temperature 69 °F 63 °F 82 °F (2008)
Min Temperature 43 °F 44 °F 27 °F (2009)
Degree Days  
Heating Degree Days 9    
Growing Degree Days 6 (Base 50)    
Moisture  
Dew Point 43 °F    
Average Humidity 63    
Maximum Humidity 89    
Minimum Humidity 32    
Precipitation  
Precipitation 0.00 in - - ()
Sea Level Pressure  
Sea Level Pressure 30.06 in    
Wind  
Wind Speed 1 mph (SW)    
Max Wind Speed 9 mph    
Max Gust Speed -    
Visibility 10 miles    
Events Rain    
Averages and records for this station are not official NWS values.
T = Trace of Precipitation, MM = Missing Value Source: NWS Daily Summary

Daily Weather History Graph

Daily Weather History Graph

Search for Another Location

Airport or City:

Trip Planner

Search our weather history database for the weather conditions in past years. The results will help you decide how hot, cold, wet, or windy it might be!

Date:

Astronomy

Feb. 05, 2013 Rise Set
Actual Time 7:14 AM EST 6:06 PM EST
Civil Twilight 6:49 AM EST 6:31 PM EST
Nautical Twilight 6:20 AM EST 6:59 PM EST
Astronomical Twilight 5:52 AM EST 7:28 PM EST
Moon 2:47 AM EST (2/5) 1:30 PM EST (2/5)
Length of Visible Light 11h 42m
Length of Day
10h 52m
Waning Crescent, 27% of the Moon is Illuminated
Feb 5
Waning Crescent
Feb 10
New
Feb 17
First Quarter
Feb 25
Full
Mar 4
Last Quarter

Hourly Weather History & Observations

Time (EST) Temp. Dew Point Humidity Pressure Visibility Wind Dir Wind Speed Gust Speed Precip Events Conditions
12:53 AM 50.0 °F 43.0 °F 77% 30.06 in 10.0 mi Calm Calm - N/A   Clear
1:53 AM 48.9 °F 43.0 °F 80% 30.06 in 10.0 mi Calm Calm - N/A   Clear
2:53 AM 46.0 °F 41.0 °F 83% 30.04 in 10.0 mi Calm Calm - N/A   Clear
3:53 AM 43.0 °F 39.0 °F 86% 30.04 in 10.0 mi Calm Calm - N/A   Clear
4:53 AM 43.0 °F 39.9 °F 89% 30.04 in 10.0 mi Calm Calm - N/A   Clear
5:53 AM 46.9 °F 42.1 °F 83% 30.06 in 10.0 mi Calm Calm - N/A   Clear
6:53 AM 46.9 °F 42.1 °F 83% 30.09 in 10.0 mi Calm Calm - N/A   Clear
7:53 AM 48.9 °F 44.1 °F 83% 30.09 in 10.0 mi Calm Calm - N/A   Mostly Cloudy
8:53 AM 55.9 °F 43.0 °F 62% 30.10 in 10.0 mi SW 4.6 mph - N/A   Mostly Cloudy
9:53 AM 59.0 °F 37.0 °F 44% 30.12 in 10.0 mi West 3.5 mph - N/A   Overcast
10:53 AM 61.0 °F 33.1 °F 35% 30.12 in 10.0 mi WSW 3.5 mph - 0.00 in   Overcast
11:53 AM 63.0 °F 36.0 °F 37% 30.10 in 10.0 mi Calm Calm - 0.00 in   Partly Cloudy
12:53 PM 66.9 °F 36.0 °F 32% 30.07 in 10.0 mi SW 6.9 mph - N/A   Scattered Clouds
1:53 PM 68.0 °F 39.0 °F 35% 30.04 in 10.0 mi WSW 9.2 mph - N/A   Partly Cloudy
2:53 PM 69.1 °F 43.0 °F 39% 30.03 in 10.0 mi NW 8.1 mph - N/A   Partly Cloudy
3:53 PM 68.0 °F 42.1 °F 39% 30.02 in 10.0 mi South 5.8 mph - N/A   Clear
4:53 PM 68.0 °F 44.1 °F 42% 30.03 in 10.0 mi SSW 4.6 mph - N/A   Clear
5:53 PM 66.0 °F 46.0 °F 48% 30.01 in 10.0 mi SSW 4.6 mph - 0.00 in Rain Light Rain
6:53 PM 61.0 °F 52.0 °F 72% 30.03 in 10.0 mi Calm Calm - 0.00 in   Mostly Cloudy
7:53 PM 61.0 °F 46.9 °F 60% 30.05 in 10.0 mi Calm Calm - N/A   Overcast
8:53 PM 59.0 °F 48.0 °F 67% 30.06 in 10.0 mi Calm Calm - N/A   Overcast
9:53 PM 61.0 °F 48.0 °F 62% 30.08 in 10.0 mi Calm Calm - 0.00 in Rain Light Rain
10:53 PM 57.0 °F 53.1 °F 87% 30.07 in 10.0 mi Calm Calm - 0.00 in Rain Light Rain
11:53 PM 57.9 °F 53.1 °F 84% 30.07 in 10.0 mi Calm Calm - 0.00 in   Overcast